Location: Newark
(45.8667°N, 9.7333°E)
Time: 17:54:29
(UTC+00:00)

Transit 4A - Pass Details

Date: 31 January 2020
Orbit: 872 x 973 km, 66.8° (Epoch: 26 February)

Event Time Altitude Azimuth Distance (km) Brightness Sun altitude
Rises 10:40:26 0° 329° (NNW) 3,478 10.4 25.5°
Reaches altitude 10° 10:44:12 10° 353° (N) 2,531 9.7 25.7°
Maximum altitude 10:47:23 15° 26° (NNE) 2,205 9.6 25.8°
Drops below altitude 10° 10:50:34 10° 60° (ENE) 2,530 10.1 25.9°
Sets 10:54:18 0° 84° (E) 3,474 11.0 26.0°
